Theta_e
285 285 284 283 283 282 281 281 280 280 280 280 280 280 279 279 279 278 278 278 278 278
285 284 283 282 282 281 280 281 280 280 279 279 279 279 279 278 278 277 278 277 278 278
285 284 283 282 280 280 280 280 279 279 279 279 279 279 278 277 277 277 276 277 276 276
283 283 282 281 281 280 280 279 279 279 279 279 278 278 277 277 277 277 276 276 276 276
283 282 281 281 280 280 280 279 279 279 278 278 278 277 276 276 276 276 276 276 276 275
281 281 281 280 280 280 279 279 279 279 278 277 277 277 277 277 277 276 276 276 276 275
281 281 281 280 279 280 279 279 278 278 278 277 277 277 277 277 276 276 276 277 276 276
281 281 280 280 280 280 279 279 278 277 277 277 276 277 276 276 276 275 275 276 276 276
281 280 280 280 280 279 279 277 277 277 276 275 277 280 282 278 276 276 275 275 275 275
281 281 280 280 280 279 278 278 277 276 275 274 275 282 283 283 276 275 275 275 275 275
281 281 280 279 279 278 278 277 276 275 275 274 275 281 283 283 276 275 275 274 274 274
281 281 279 279 279 278 278 276 275 275 273 274 273 281 283 282 275 275 274 274 274 273
282 282 280 280 279 278 278 277 276 275 274 273 271 279 282 282 275 270 273 273 274 276
282 282 281 281 279 276 276 274 273 273 271 271 271 271 281 283 275 274 271 271 272 273
Wind_Speed
13 9 8 8 8 6 5 7 6 6 6 7 7 6 6 4 4 5 5 8 5 4
10 11 10 8 6 5 6 7 7 7 8 7 7 6 6 4 5 5 5 5 5 4
12 10 10 9 9 9 7 8 9 8 7 7 7 6 6 5 5 6 4 4 6 4
10 10 10 9 8 9 8 9 9 8 8 7 7 6 6 5 6 6 6 4 5 5
12 11 11 10 10 9 11 8 9 9 8 7 7 7 7 7 6 6 6 5 5 4
11 13 12 11 11 10 10 9 8 8 9 8 8 7 6 6 6 6 5 5 5 4
12 13 12 11 11 11 10 10 9 8 8 8 8 7 6 6 6 5 5 5 4 4
10 9 10 11 11 10 10 9 8 9 7 7 7 6 7 7 6 6 5 4 4 5
11 10 11 11 11 11 10 8 8 9 9 8 6 13 16 9 6 6 5 5 5 5
12 12 12 11 11 12 11 9 9 9 9 9 7 16 16 15 5 5 5 5 4 4
13 12 11 11 12 10 9 11 10 10 9 7 7 15 16 15 6 5 6 6 5 5
13 13 12 12 11 9 9 8 8 6 8 9 6 17 17 13 5 7 7 6 6 6
13 12 14 12 12 8 8 9 7 8 8 8 7 16 17 15 4 5 5 5 7 15
12 13 12 11 8 9 8 5 8 7 5 7 8 9 19 19 5 7 6 7 7 7
Wind_Direction
155 155 154 156 155 154 148 142 134 127 120 116 109 107 107 105 106 105 100 102 96 106
157 154 157 143 145 145 131 135 136 132 127 127 118 123 124 120 119 111 107 113 116 115
162 155 147 148 152 152 143 140 144 141 136 131 131 136 127 126 133 121 126 132 127 116
156 148 147 153 155 157 149 154 150 148 140 143 146 145 134 144 150 137 140 138 141 141
155 151 155 160 164 159 160 158 155 153 148 150 155 155 157 168 163 158 161 167 153 162
162 162 166 165 164 164 160 161 156 153 158 166 168 166 176 175 169 172 172 171 174 177
172 172 167 163 166 167 166 162 166 168 167 172 168 173 173 179 174 178 181 184 188 200
168 169 162 160 167 164 168 171 167 162 170 169 175 178 189 182 185 181 188 198 213 220
163 166 181 166 167 170 173 164 161 175 178 180 191 200 202 190 187 184 190 205 221 231
170 175 186 172 168 176 179 170 180 183 182 195 192 206 207 207 191 185 197 206 218 230
174 176 183 178 177 173 172 185 186 191 194 189 207 211 213 215 178 195 210 210 212 225
178 179 182 184 177 177 175 184 188 184 189 196 206 210 218 217 173 205 218 213 217 225
180 185 189 183 180 175 190 196 187 198 197 199 204 214 221 222 173 205 220 222 233 233
180 184 185 178 172 177 183 165 192 198 189 200 196 214 226 228 183 213 217 228 236 235